WAT1287 NLWW-NGFU

Flight info

Callsign WAT1287
Flight time 1h 7m
Altitude 30000
Route MATAV DCT SEMUT
Aircraft HDJT/L-SABDGRWY/H

Departure

Time 2026-05-04 07:09
Airport Hihifo Airport (NLWW)

Arrival

Time 2026-05-04 08:16
Airport Funafuti International Airport (NGFU)
Time Latitude Longitude Altitude Speed Heading
2026-05-04 07:08 -13.17427 -176.43335 16511 ft 255 kts 313°
2026-05-04 07:09 -13.16155 -176.44625 17202 ft 259 kts 313°
2026-05-04 07:09 -13.14865 -176.45934 17899 ft 263 kts 313°
2026-05-04 07:09 -13.13557 -176.47263 18534 ft 266 kts 313°
2026-05-04 07:09 -13.12233 -176.48606 19134 ft 269 kts 313°
2026-05-04 07:10 -13.10893 -176.49966 19636 ft 273 kts 313°
2026-05-04 07:10 -13.09536 -176.51343 20158 ft 276 kts 313°
2026-05-04 07:12 -12.99625 -176.61390 23892 ft 296 kts 313°
2026-05-04 07:12 -12.98155 -176.62880 24370 ft 298 kts 313°
2026-05-04 07:12 -12.96673 -176.64381 24843 ft 300 kts 313°
2026-05-04 07:12 -12.95688 -176.65378 25157 ft 301 kts 313°
2026-05-04 07:13 -12.94192 -176.66894 25622 ft 304 kts 314°
2026-05-04 07:13 -12.92684 -176.68420 26086 ft 306 kts 314°
2026-05-04 07:13 -12.91168 -176.69955 26551 ft 308 kts 314°
2026-05-04 07:14 -12.84997 -176.76198 28313 ft 316 kts 314°
2026-05-04 07:14 -12.83432 -176.77782 28723 ft 318 kts 314°
2026-05-04 07:15 -12.81854 -176.79377 29125 ft 320 kts 314°
2026-05-04 07:15 -12.80267 -176.80982 29515 ft 322 kts 314°
2026-05-04 07:15 -12.78669 -176.82597 29865 ft 325 kts 314°
2026-05-04 07:15 -12.77032 -176.84253 29878 ft 337 kts 314°
2026-05-04 07:16 -12.75333 -176.85970 29882 ft 348 kts 314°
2026-05-04 07:16 -12.73584 -176.87736 29882 ft 358 kts 315°
2026-05-04 07:16 -12.69957 -176.91398 29893 ft 374 kts 315°
2026-05-04 07:17 -12.66196 -176.95194 29896 ft 385 kts 314°
2026-05-04 07:17 -12.62344 -176.99081 29891 ft 393 kts 314°
2026-05-04 07:18 -12.58423 -177.03036 29894 ft 398 kts 314°
2026-05-04 07:18 -12.54457 -177.07034 29896 ft 402 kts 314°
2026-05-04 07:19 -12.50460 -177.11062 29890 ft 405 kts 314°
2026-05-04 07:19 -12.46439 -177.15111 29892 ft 406 kts 314°
2026-05-04 07:20 -12.42433 -177.19145 29892 ft 407 kts 314°
2026-05-04 07:20 -12.38389 -177.23213 29889 ft 408 kts 315°
2026-05-04 07:22 -12.22142 -177.39543 29887 ft 410 kts 314°
2026-05-04 07:23 -12.18071 -177.43630 29889 ft 410 kts 314°
2026-05-04 07:23 -12.14001 -177.47714 29889 ft 410 kts 314°
2026-05-04 07:24 -12.09927 -177.51801 29889 ft 410 kts 314°
2026-05-04 07:24 -12.05854 -177.55885 29883 ft 410 kts 314°
2026-05-04 07:26 -11.89526 -177.72237 29873 ft 412 kts 315°
2026-05-04 07:27 -11.85434 -177.76330 29876 ft 412 kts 315°
2026-05-04 07:27 -11.81336 -177.80428 29876 ft 412 kts 315°
2026-05-04 07:28 -11.77239 -177.84523 29879 ft 412 kts 315°
2026-05-04 07:28 -11.73137 -177.88620 29879 ft 413 kts 315°
2026-05-04 07:29 -11.69035 -177.92717 29875 ft 413 kts 315°
2026-05-04 07:29 -11.64961 -177.96783 29875 ft 413 kts 315°
2026-05-04 07:30 -11.60855 -178.00880 29875 ft 413 kts 315°
2026-05-04 07:30 -11.56748 -178.04976 29875 ft 413 kts 315°
2026-05-04 07:31 -11.52640 -178.09070 29879 ft 413 kts 315°
2026-05-04 07:33 -11.36232 -178.25409 29876 ft 412 kts 315°
2026-05-04 07:33 -11.32135 -178.29485 29876 ft 412 kts 315°
2026-05-04 07:34 -11.28057 -178.33540 29877 ft 410 kts 315°
2026-05-04 07:34 -11.23970 -178.37602 29877 ft 411 kts 315°
2026-05-04 07:35 -11.19873 -178.41672 29877 ft 412 kts 315°
2026-05-04 07:35 -11.15771 -178.45745 29877 ft 412 kts 315°
2026-05-04 07:36 -11.11668 -178.49819 29878 ft 412 kts 314°
2026-05-04 07:38 -10.95225 -178.66123 29875 ft 413 kts 314°
2026-05-04 07:38 -10.91138 -178.70172 29875 ft 413 kts 314°
2026-05-04 07:39 -10.87021 -178.74248 29877 ft 413 kts 314°
2026-05-04 07:39 -10.82906 -178.78321 29877 ft 413 kts 314°
2026-05-04 07:40 -10.78788 -178.82395 29877 ft 413 kts 314°
2026-05-04 07:40 -10.74669 -178.86470 29877 ft 413 kts 314°
2026-05-04 07:41 -10.70551 -178.90540 29880 ft 413 kts 314°
2026-05-04 07:41 -10.66434 -178.94608 29880 ft 413 kts 314°
2026-05-04 07:42 -10.62318 -178.98674 29881 ft 413 kts 314°
2026-05-04 07:42 -10.58204 -179.02737 29880 ft 412 kts 314°
2026-05-04 07:43 -10.54094 -179.06794 29880 ft 411 kts 314°
2026-05-04 07:43 -10.49992 -179.10840 29880 ft 410 kts 314°
2026-05-04 07:44 -10.45901 -179.14875 29884 ft 410 kts 314°
2026-05-04 07:44 -10.41812 -179.18907 29884 ft 409 kts 314°
2026-05-04 07:45 -10.37725 -179.22934 29880 ft 409 kts 314°
2026-05-04 07:45 -10.33638 -179.26960 29883 ft 410 kts 314°
2026-05-04 07:46 -10.29546 -179.30990 29879 ft 410 kts 314°
2026-05-04 07:46 -10.25451 -179.35021 29879 ft 410 kts 314°
2026-05-04 07:47 -10.21354 -179.39052 29882 ft 410 kts 314°
2026-05-04 07:49 -10.04993 -179.55136 29879 ft 410 kts 314°
2026-05-04 07:49 -10.00897 -179.59159 29879 ft 410 kts 314°
2026-05-04 07:50 -9.96798 -179.63183 29879 ft 410 kts 314°
2026-05-04 07:50 -9.92699 -179.67206 29879 ft 410 kts 314°
2026-05-04 07:51 -9.88597 -179.71230 29879 ft 410 kts 314°
2026-05-04 07:51 -9.84497 -179.75251 29879 ft 410 kts 314°
2026-05-04 07:52 -9.80397 -179.79270 29883 ft 409 kts 314°
2026-05-04 07:52 -9.76313 -179.83273 29883 ft 408 kts 314°
2026-05-04 07:54 -9.60917 -179.98345 27937 ft 334 kts 314°
2026-05-04 07:55 -9.59274 -179.99953 27507 ft 323 kts 314°
2026-05-04 07:55 -9.57683 179.98490 27090 ft 313 kts 314°
2026-05-04 07:55 -9.56133 179.96974 26683 ft 306 kts 313°
2026-05-04 07:55 -9.54617 179.95490 26284 ft 301 kts 313°
2026-05-04 07:56 -9.53115 179.94021 25890 ft 300 kts 313°
2026-05-04 07:56 -9.51605 179.92543 25493 ft 303 kts 313°
2026-05-04 07:56 -9.50083 179.91055 25089 ft 305 kts 313°
2026-05-04 07:56 -9.48554 179.89561 24692 ft 306 kts 313°
2026-05-04 07:57 -9.47017 179.88059 24287 ft 308 kts 313°
2026-05-04 07:57 -9.45474 179.86551 23883 ft 309 kts 313°
2026-05-04 07:57 -9.43921 179.85033 23471 ft 311 kts 313°
2026-05-04 07:57 -9.42358 179.83506 23018 ft 313 kts 313°
2026-05-04 07:58 -9.40793 179.81978 22600 ft 313 kts 313°
2026-05-04 07:58 -9.39227 179.80448 22186 ft 313 kts 313°
2026-05-04 07:58 -9.37662 179.78920 21771 ft 313 kts 314°
2026-05-04 07:58 -9.36098 179.77393 21360 ft 313 kts 314°
2026-05-04 07:59 -9.34531 179.75862 20947 ft 313 kts 314°
2026-05-04 07:59 -9.32966 179.74334 20534 ft 313 kts 314°
2026-05-04 07:59 -9.31399 179.72805 20123 ft 313 kts 314°
2026-05-04 07:59 -9.29832 179.71276 19706 ft 313 kts 314°
2026-05-04 08:00 -9.28266 179.69748 19297 ft 313 kts 314°
2026-05-04 08:00 -9.26699 179.68219 18885 ft 313 kts 314°
2026-05-04 08:00 -9.25663 179.67208 18612 ft 313 kts 315°
2026-05-04 08:02 -9.14720 179.56538 15684 ft 307 kts 314°
2026-05-04 08:02 -9.13187 179.55044 15281 ft 305 kts 315°
2026-05-04 08:02 -9.11665 179.53561 14879 ft 303 kts 315°
2026-05-04 08:03 -9.10154 179.52088 14481 ft 301 kts 315°
2026-05-04 08:03 -9.08652 179.50625 14083 ft 299 kts 315°
2026-05-04 08:03 -9.07156 179.49167 13690 ft 299 kts 315°
2026-05-04 08:03 -9.05663 179.47714 13270 ft 297 kts 315°
2026-05-04 08:04 -9.04178 179.46267 12877 ft 296 kts 315°
2026-05-04 08:04 -9.02700 179.44828 12488 ft 294 kts 315°
2026-05-04 08:04 -9.01231 179.43397 12102 ft 293 kts 315°
2026-05-04 08:04 -8.99766 179.41971 11716 ft 292 kts 315°
2026-05-04 08:05 -8.98308 179.40552 11333 ft 290 kts 315°
2026-05-04 08:05 -8.96858 179.39140 10952 ft 289 kts 315°
2026-05-04 08:05 -8.95413 179.37734 10571 ft 288 kts 315°
2026-05-04 08:05 -8.93974 179.36334 10193 ft 287 kts 316°
2026-05-04 08:06 -8.92541 179.34939 9818 ft 285 kts 316°
2026-05-04 08:06 -8.91117 179.33554 9485 ft 283 kts 316°
2026-05-04 08:06 -8.89695 179.32171 9168 ft 283 kts 316°
2026-05-04 08:06 -8.88281 179.30796 8804 ft 281 kts 316°
2026-05-04 08:08 -8.78603 179.21385 6302 ft 270 kts 316°
2026-05-04 08:08 -8.77251 179.20072 5937 ft 269 kts 316°
2026-05-04 08:10 -8.67847 179.10635 3626 ft 202 kts 317°
2026-05-04 08:11 -8.66718 179.09853 3382 ft 192 kts 336°
2026-05-04 08:11 -8.64350 179.09502 2918 ft 168 kts
2026-05-04 08:11 -8.63232 179.09824 2696 ft 167 kts 24°
2026-05-04 08:12 -8.62249 179.10436 2472 ft 166 kts 39°
2026-05-04 08:12 -8.61401 179.11239 2251 ft 164 kts 42°
2026-05-04 08:12 -8.60578 179.12005 1974 ft 161 kts 42°
2026-05-04 08:12 -8.59758 179.12771 1790 ft 160 kts 42°
2026-05-04 08:13 -8.58948 179.13531 1583 ft 157 kts 42°
2026-05-04 08:13 -8.58201 179.14233 1384 ft 134 kts 42°
2026-05-04 08:13 -8.57570 179.14825 1223 ft 116 kts 42°
2026-05-04 08:13 -8.57008 179.15352 1100 ft 107 kts 43°
2026-05-04 08:14 -8.56442 179.15884 893 ft 112 kts 41°
2026-05-04 08:14 -8.55875 179.16415 770 ft 111 kts 41°
2026-05-04 08:14 -8.55314 179.16941 640 ft 110 kts 41°
2026-05-04 08:16 -8.52213 179.19855 8 ft 0 kts 42°
2026-05-04 08:16 -8.52207 179.19873 8 ft 5 kts 68°
2026-05-04 08:16 -8.52203 179.19875 8 ft 1 kts 326°
2026-05-04 08:17 -8.52215 179.19852 8 ft 7 kts 221°
2026-05-04 08:17 -8.52269 179.19801 7 ft 14 kts 223°
2026-05-04 08:17 -8.52348 179.19728 5 ft 16 kts 223°
2026-05-04 08:17 -8.52432 179.19650 5 ft 16 kts 223°
2026-05-04 08:19 -8.52482 179.19538 3 ft 0 kts 321°